Regional Weather Roundup
Issued by NWS

Home | Current Version | Previous Version | Graphics & Text | Print | Product List | Glossary On
Versions: 1 2 3 4 5 6 7 8 9 10 11 12 13 14 15 16 17 18 19 20 21 22 23 24 25 26 27 28 29 30 31 32 33 34 35 36 37 38 39 40 41 42 43 44 45 46 47 48 49 50
000
ASUS43 KDTX 242110
RWRMI
MICHIGAN HOURLY REGIONAL WEATHER ROUNDUP
NATIONAL WEATHER SERVICE DETROIT/PONTIAC MI
400 PM EST SAT JAN 24 2015

NOTE: "FAIR" INDICATES FEW OR NO CLOUDS BELOW 12,000 FEET WITH NO
SIGNIFICANT WEATHER AND/OR OBSTRUCTION TO VISIBILITY.

MIZ047>049-052>055-059>063-066>070-074>076-081>083-242200-
SOUTHEAST LOWER MICHIGAN

CITY           SKY/WX    TMP DP  RH WIND       PRES   REMARKS
ADRIAN         CLOUDY    36  30  79 NW10      29.60R
ALMA           CLOUDY    37  32  80 W8        29.56R
ANN ARBOR      CLOUDY    36  30  79 W10       29.57R
BAD AXE        CLOUDY    35  32  88 W8        29.50R
DETROIT CITY   CLOUDY    36  28  73 W10       29.56R HAZE
DETROIT        CLOUDY    34  29  82 SW9       29.57S HAZE
FLINT          CLOUDY    38  30  73 W13       29.55R
GROSSE ILE     CLOUDY    34  28  80 SW7       29.56S HAZE
HILLSDALE      CLOUDY    36  31  83 W12       29.58R
HOWELL         CLOUDY    36  31  82 W10       29.55R

CITY           SKY/WX    TMP DP  RH WIND       PRES   REMARKS
JACKSON        CLOUDY    37  29  72 W8        29.57R
LAMBERTVILLE   CLOUDY    34  30  86 W5        29.60R HAZE
LANSING        CLOUDY    37  30  75 W12       29.57R
LAPEER         NOT AVBL
MASON          CLOUDY    36  29  76 W8G18     29.57R
MONROE         CLOUDY    34  28  80 SW12      29.57R FOG
MT. CLEMENS    CLOUDY    36  30  80 W7        29.52S HAZE
PONTIAC        CLOUDY    35  30  82 W12         N/A
PORT HOPE        N/A     36  29  75 VRB6      29.47R
PORT HURON     CLOUDY    32  30  93 SW3       29.53R FOG
TRI CITIES     CLOUDY    38  30  73 W13       29.53S
YPSILANTI      CLOUDY    38  29  70 W10       29.57R HAZE
$$
MIZ043>046-050>051-056>058-064>065-071>073-077>080-242200-
SOUTHWEST LOWER MICHIGAN

CITY           SKY/WX    TMP DP  RH WIND       PRES   REMARKS
BATTLE CREEK   CLOUDY    39  30  70 W12       29.60R
BENTON HARBOR  CLOUDY    37  32  82 SW8       29.63S
BIG RAPIDS     CLOUDY    37  33  84 W8        29.53S
COLDWATER      CLOUDY    36  30  78 W9        29.60R
HOLLAND        CLOUDY    38  32  79 W8        29.61R
GRAND RAPIDS   CLOUDY    37  31  78 W14       29.59R
KALAMAZOO      CLOUDY    38  30  73 W12       29.61R
MARSHALL       CLOUDY    37  30  77 W8        29.58R
MUSKEGON       LGT RAIN  37  33  85 W7        29.60R
$$
MIZ016>042-242200-
NORTHERN LOWER MICHIGAN

CITY           SKY/WX    TMP DP  RH WIND       PRES   REMARKS
ALPENA         CLOUDY    35  28  75 NW10      29.48R
BEAVER ISLAND  CLOUDY    30  26  85 CALM      29.56R
BELLAIRE       CLOUDY    35  31  87 NW5       29.54R
CADILLAC       CLOUDY    35  29  80 NW14      29.51R
CHARLEVOIX     CLOUDY    32  28  86 N9        29.57R
FRANKFORT      CLOUDY    37  32  82 NW7       29.55S
GAYLORD        CLOUDY    32  29  88 NW12G17   29.49R
GRAYLING       CLOUDY    34  30  85 W8        29.50R
HARBOR SPRINGS CLOUDY    32  25  76 NW9       29.53R
HOUGHTON LAKE  CLOUDY    34  31  88 W10       29.50R
MANISTEE       CLOUDY    37  32  81 NW7       29.57S
OSCODA         CLOUDY    37  30  74 W6        29.47R
PELLSTON       PTSUNNY   31  24  75 NW14G24   29.53R
TRAVERSE CITY  CLOUDY    37  29  72 N9        29.53R
$$
MIZ007>008-015-242200-
EASTERN UPPER MICHIGAN

CITY           SKY/WX    TMP DP  RH WIND       PRES   REMARKS
KINROSS        CLOUDY    27  23  86 NW20      29.50R
MACKINAC ISLAN CLOUDY    30  25  79 NW13G20   29.52R
NEWBERRY       CLOUDY    25  19  80 NW13G20   29.55R
S. S. MARIE    CLOUDY    25  17  72 NW17      29.51R
$$
MIZ004>006-011>014-085-242200-
CENTRAL UPPER MICHIGAN

CITY           SKY/WX    TMP DP  RH WIND       PRES   REMARKS
MANISTIQUE     CLOUDY    28  24  86 N15G25    29.57R
ESCANABA       CLOUDY    28  21  74 N10       29.59R
MENOMINEE      CLOUDY    39  27  60 N6        29.55R
SAWYER-GWINN   CLOUDY    21  19  93 N18       29.59R
$$
MIZ001>003-009>011-084-242200-
WESTERN UPPER MICHIGAN

CITY           SKY/WX    TMP DP  RH WIND       PRES   REMARKS
IRON MOUNTAIN  CLOUDY    36  24  62 NW10      29.54R
HOUGHTON       FLURRIES  18  11  74 NE15      29.65R
COPPER HARBOR    N/A     20  13  74 NE17G24   29.68R
IRONWOOD       CLOUDY    28  27  93 NE6       29.57R
$$

ABBREVIATIONS USED IN REMARKS
   TC - TEMPERATURE IN CELSIUS
  WCI - WIND CHILL INDEX
   HX - HEAT INDEX
  VSB - VISIBILITY




USA.gov is the U.S. government's official web portal to all federal, state and local government web resources and services.